Content
SEND FEEDBACK

Daily
Averages
Monthly
Summary
Slovakia

MT. CHOPOK, SLOVAKIA


Home > Europe > Slovakia
Elevation: 6599 feet     Latitude: 48 56N     Longitude: 019 35E

WEATHER
 
SELECT A DAY
Number of Records: 324,956;   Date Range: 7/1/96 - 10/19/14
 
SHARE

PRINT THIS DATA

[ ← Previous Day ]
WEATHER ALMANAC - JANUARY 23, 2013
[ Next Day → ]
[ °C ]   °F
Weather ElementAverageHighLow
Temperature19.8 °F23 °F (1:00 pm)17.6 °F (4:00 am)
Dewpoint15.4 °F17.6 °F (10:00 pm)14 °F (6:00 am)
Humidity82.5 %93 % (4:00 am)65 % (1:00 pm)
Barometer29.65 in29.74 in (10:00 pm)29.59 in (12:17 am)
Wind Speed1.9 mph4.6 mph (3:00 am)
Weather ElementAverage
Visibility2 mi
Wind DirectionENE (58.3 °)

Weather ElementTotal
Precipitation---
Heating Degree Days44.7 (Base 65)
Averaged from 56 records on January 23, 2013
WEATHER CONDITIONS BREAKOUT
WIND DIRECTION BREAKOUT
WEATHER BY HOUR - JANUARY 23, 2013
[ °C ]   °F
Local TimeTemperatureDewpointHumidityBarometerVisibilityWind DirectionWind SpeedGust SpeedPrecipitationEventsConditions
12:17 AM19.4 °F15.8 °F86 %29.59 in0.6 miEast (80°)3.5 mphSnowSnow
12:30 AM19.4 °F15.8 °F86 %29.59 in0.7 miENE (70°)3.5 mphSnowSnow
1:00 AM19.0 °F17.0 °F85 %1.0 mi°2.2 mphSnowSnow
1:00 AM19.4 °F15.8 °F86 %29.59 in0.7 miVariable2.3 mphSnowSnow
1:30 AM19.4 °F15.8 °F86 %29.59 in1.0 miCalmSnowLight Snow
2:00 AM19.4 °F15.8 °F86 %29.59 in1.1 miENE (70°)2.3 mphSnowLight Snow
2:30 AM19.4 °F15.8 °F86 %29.59 in1.9 miENE (70°)2.3 mphSnowLight Snow
3:00 AM19.4 °F15.8 °F86 %29.59 in0.9 miENE (70°)4.6 mphSnowSnow
3:30 AM19.4 °F15.8 °F86 %29.59 in1.2 miENE (70°)2.3 mphSnowLight Snow
4:00 AM18.0 °F15.0 °F85 %2.0 miENE (60°)2.2 mphSnowLight Snow
4:00 AM17.6 °F15.8 °F93 %29.59 in1.9 miVariable1.2 mphSnowLight Snow
4:30 AM17.6 °F15.8 °F93 %29.59 inENE (60°)3.5 mphSnowLight Snow
5:00 AM17.6 °F15.8 °F93 %29.59 inEast (80°)1.2 mphSnowLight Snow
5:30 AM17.6 °F15.8 °F93 %29.59 in2.2 miVariable1.2 mphSnowLight Snow
6:00 AM17.6 °F14.0 °F86 %29.59 inNE (50°)3.5 mphOvercast
6:30 AM17.6 °F14.0 °F86 %29.59 inEast (80°)2.3 mphSnowLight Snow
7:00 AM18.0 °F15.0 °F80 %2.0 miEast (80°)2.2 mphSnowLight Snow
7:00 AM17.6 °F14.0 °F86 %29.62 in1.7 miEast (90°)1.2 mphSnowLight Snow
7:30 AM17.6 °F14.0 °F86 %29.62 inEast (100°)2.3 mphSnowLight Snow
8:00 AM17.6 °F14.0 °F86 %29.62 inEast (90°)3.5 mphSnowLight Snow
8:30 AM19.4 °F14.0 °F80 %29.62 in2.8 miENE (60°)3.5 mphSnowLight Snow
9:00 AM19.4 °F15.8 °F86 %29.62 in2.8 miNE (50°)2.3 mphSnowLight Snow
9:30 AM19.4 °F14.0 °F80 %29.62 inVariable2.3 mphSnowLight Snow
10:00 AM20.0 °F15.0 °F71 %3.0 miEast (80°)2.2 mphSnowLight Snow
10:00 AM19.4 °F14.0 °F80 %29.65 inEast (80°)2.3 mphSnowLight Snow
10:30 AM21.2 °F14.0 °F74 %29.65 inENE (70°)1.2 mphSnowLight Snow
11:00 AM21.2 °F14.0 °F74 %29.65 inEast (90°)3.5 mphSnowLight Snow
11:30 AM21.2 °F14.0 °F74 %29.65 inENE (70°)4.6 mphSnowLight Snow
12:00 PM21.2 °F14.0 °F74 %29.65 inENE (60°)3.5 mphSnowLight Snow
12:30 PM21.2 °F15.8 °F80 %29.65 in2.8 miVariable2.3 mphSnowLight Snow
1:00 PM22.0 °F15.0 °F65 %3.0 miCalmSnowLight Snow
1:00 PM23.0 °F15.8 °F74 %29.65 inVariable1.2 mphSnowLight Snow
1:30 PM21.2 °F14.0 °F74 %29.65 in2.8 miCalmSnowLight Snow
2:00 PM23.0 °F15.8 °F74 %29.65 in2.8 miENE (60°)2.3 mphSnowLight Snow
2:30 PM21.2 °F15.8 °F80 %29.65 inENE (60°)3.5 mphSnowLight Snow
3:00 PM21.2 °F15.8 °F80 %29.65 inENE (60°)2.3 mphSnowLight Snow
3:30 PM21.2 °F15.8 °F80 %29.68 in2.5 miCalmSnowLight Snow
4:00 PM21.0 °F16.0 °F72 %2.0 miENE (60°)2.2 mphSnowLight Snow
4:00 PM21.2 °F15.8 °F80 %29.68 inENE (60°)1.2 mphSnowLight Snow
4:30 PM21.2 °F15.8 °F80 %29.68 inENE (70°)1.2 mphSnowLight Snow
5:00 PM21.2 °F15.8 °F80 %29.71 in2.5 miCalmSnowLight Snow
5:30 PM21.2 °F15.8 °F80 %29.71 in2.5 miVariable1.2 mphSnowLight Snow
6:00 PM21.2 °F15.8 °F80 %29.71 in2.5 miNNE (20°)2.3 mphSnowLight Snow
6:30 PM21.2 °F15.8 °F80 %29.71 in2.5 miVariable1.2 mphSnowLight Snow
7:00 PM20.0 °F16.0 °F78 %2.0 miEast (80°)2.2 mphSnowLight Snow
7:00 PM19.4 °F15.8 °F86 %29.71 in2.5 miEast (90°)1.2 mphSnowLight Snow
7:30 PM19.4 °F15.8 °F86 %29.71 in2.5 miENE (60°)2.3 mphOvercast
8:00 PM19.4 °F15.8 °F86 %29.71 in2.5 miCalmOvercast
8:30 PM19.4 °F15.8 °F86 %29.71 in2.5 miENE (60°)1.2 mphOvercast
9:00 PM19.4 °F15.8 °F86 %29.71 in1.9 miNNW (340°)1.2 mphSnowLight Snow
9:30 PM19.4 °F15.8 °F86 %29.71 in1.9 miNorth (350°)1.2 mphSnowLight Snow
10:00 PM20.0 °F17.0 °F81 %2.0 miCalmSnowLight Snow
10:00 PM19.4 °F17.6 °F93 %29.74 in2.2 miCalmSnowLight Snow
10:30 PM19.4 °F15.8 °F86 %29.74 in1.7 miCalmSnowLight Snow
11:00 PM19.4 °F15.8 °F86 %29.74 in1.9 miCalmSnowLight Snow
11:30 PM19.4 °F15.8 °F86 %29.74 in1.7 miNE (40°)2.3 mphSnowLight Snow
Hourly data recorded from LZSL, located miles away from Mt. Chopok, Slovakia







STORIES FROM OUR PARTNERS